Time,TemperatureF,DewpointF,PressureIn,WindDirection,WindDirectionDegrees,WindSpeedMPH,WindSpeedGustMPH,Humidity,HourlyPrecipIn,Conditions,Clouds,dailyrainin,SolarRadiationWatts/m^2,SoftwareType,DateUTC
2013-05-05 00:01:00,52.0,51.5,29.90,East,88,9.2,9.2,98,0.15,RA,,0.00,0.0,WeatherDisplay:10.37,2013-05-05 04:01:00,
2013-05-05 00:06:00,52.0,51.5,29.89,ESE,122,15.0,15.0,98,0.13,RA,,0.01,0.0,WeatherDisplay:10.37,2013-05-05 04:06:00,
2013-05-05 00:11:00,52.0,51.5,29.90,ESE,115,20.7,20.7,98,0.15,RA,,0.02,0.0,WeatherDisplay:10.37,2013-05-05 04:11:00,
2013-05-05 00:16:00,52.0,51.5,29.89,East,94,11.5,11.5,98,0.15,RA,,0.05,0.0,WeatherDisplay:10.37,2013-05-05 04:16:00,
2013-05-05 00:21:00,52.0,51.2,29.89,ENE,66,5.8,5.8,97,0.12,RA,,0.06,0.0,WeatherDisplay:10.37,2013-05-05 04:21:00,
2013-05-05 00:26:00,52.0,51.2,29.88,ENE,63,19.6,19.6,97,0.12,RA,,0.06,0.0,WeatherDisplay:10.37,2013-05-05 04:26:00,
2013-05-05 00:31:00,52.0,51.2,29.88,East,94,12.7,12.7,97,0.11,RA,,0.06,0.0,WeatherDisplay:10.37,2013-05-05 04:31:00,
2013-05-05 00:36:00,52.0,51.2,29.88,East,82,6.9,6.9,97,0.11,RA,,0.07,0.0,WeatherDisplay:10.37,2013-05-05 04:36:00,
2013-05-05 00:41:00,52.1,51.6,29.88,East,97,10.4,10.4,98,0.10,RA,,0.07,0.0,WeatherDisplay:10.37,2013-05-05 04:41:00,
2013-05-05 00:46:00,52.1,51.3,29.88,SE,142,12.7,12.7,97,0.11,RA,,0.08,0.0,WeatherDisplay:10.37,2013-05-05 04:46:00,
2013-05-05 00:51:00,52.1,51.3,29.87,ESE,104,13.8,13.8,97,0.11,RA,,0.10,0.0,WeatherDisplay:10.37,2013-05-05 04:51:00,
2013-05-05 00:56:00,52.1,51.3,29.87,ESE,113,13.8,13.8,97,0.10,RA,,0.10,0.0,WeatherDisplay:10.37,2013-05-05 04:56:00,
2013-05-05 01:01:00,52.1,51.3,29.87,East,99,9.2,9.2,97,0.11,RA,,0.11,0.0,WeatherDisplay:10.37,2013-05-05 05:01:00,
2013-05-05 01:06:00,52.1,51.3,29.86,NE,54,17.3,17.3,97,0.10,RA,,0.11,0.0,WeatherDisplay:10.37,2013-05-05 05:06:00,
2013-05-05 01:11:00,52.1,51.3,29.86,East,100,13.8,13.8,97,0.08,,,0.12,0.0,WeatherDisplay:10.37,2013-05-05 05:11:00,
2013-05-05 01:16:00,52.0,51.2,29.86,ENE,62,11.5,11.5,97,0.07,RA,,0.12,0.0,WeatherDisplay:10.37,2013-05-05 05:16:00,
2013-05-05 01:21:00,52.0,51.2,29.85,East,92,17.3,17.3,97,0.07,RA,,0.12,0.0,WeatherDisplay:10.37,2013-05-05 05:21:00,
2013-05-05 01:26:00,52.0,51.2,29.85,East,86,13.8,13.8,97,0.06,CLR,,0.12,0.0,WeatherDisplay:10.37,2013-05-05 05:26:00,
2013-05-05 01:31:00,52.0,51.2,29.85,SE,134,12.7,12.7,97,0.06,CLR,,0.12,0.0,WeatherDisplay:10.37,2013-05-05 05:31:00,
2013-05-05 01:36:00,52.0,51.2,29.85,ENE,63,18.4,18.4,97,0.05,CLR,,0.12,0.0,WeatherDisplay:10.37,2013-05-05 05:36:00,
2013-05-05 01:41:00,52.0,51.2,29.85,ESE,105,11.5,11.5,97,0.05,CLR,,0.12,0.0,WeatherDisplay:10.37,2013-05-05 05:41:00,
2013-05-05 01:46:00,52.0,51.2,29.85,East,96,15.0,15.0,97,0.04,CLR,,0.12,0.0,WeatherDisplay:10.37,2013-05-05 05:46:00,
2013-05-05 01:51:00,52.0,51.2,29.84,NNE,33,13.8,13.8,97,0.02,CLR,,0.12,0.0,WeatherDisplay:10.37,2013-05-05 05:51:00,
2013-05-05 01:56:00,52.0,51.2,29.84,East,85,17.3,17.3,97,0.04,RA,,0.13,0.0,WeatherDisplay:10.37,2013-05-05 05:56:00,
2013-05-05 02:01:00,51.9,51.1,29.84,ESE,109,13.8,13.8,97,0.02,RA,,0.13,0.0,WeatherDisplay:10.37,2013-05-05 06:01:00,
2013-05-05 02:06:00,51.9,51.1,29.84,ENE,65,21.9,21.9,97,0.04,RA,,0.15,0.0,WeatherDisplay:10.37,2013-05-05 06:06:00,
2013-05-05 02:11:00,52.0,51.2,29.84,ESE,110,16.1,16.1,97,0.04,RA,,0.15,0.0,WeatherDisplay:10.37,2013-05-05 06:11:00,
2013-05-05 02:16:00,51.9,51.1,29.84,SE,138,21.9,21.9,97,0.02,CLR,,0.15,0.0,WeatherDisplay:10.37,2013-05-05 06:16:00,
2013-05-05 02:21:00,51.9,51.1,29.83,ESE,123,19.6,19.6,97,0.02,CLR,,0.15,0.0,WeatherDisplay:10.37,2013-05-05 06:21:00,
2013-05-05 02:26:00,51.9,51.1,29.83,SSE,147,17.0,17.0,97,0.04,RA,,0.16,0.0,WeatherDisplay:10.37,2013-05-05 06:26:00,
2013-05-05 02:32:00,51.9,51.1,29.83,East,84,11.5,11.5,97,0.05,RA,,0.17,0.0,WeatherDisplay:10.37,2013-05-05 06:32:00,
2013-05-05 02:37:00,51.9,51.1,29.83,East,96,9.2,9.2,97,0.06,RA,,0.18,0.0,WeatherDisplay:10.37,2013-05-05 06:37:00,
2013-05-05 02:42:00,51.9,51.1,29.84,East,92,15.0,15.0,97,0.07,RA,,0.19,0.0,WeatherDisplay:10.37,2013-05-05 06:42:00,
2013-05-05 02:47:00,51.8,51.0,29.83,NNE,23,18.4,18.4,97,0.08,RA,,0.21,0.0,WeatherDisplay:10.37,2013-05-05 06:47:00,
2013-05-05 02:52:00,51.8,51.0,29.83,East,82,15.0,15.0,97,0.10,RA,,0.22,0.0,WeatherDisplay:10.37,2013-05-05 06:52:00,
2013-05-05 02:57:00,51.8,51.0,29.83,East,96,12.7,12.7,97,0.10,RA,,0.23,0.0,WeatherDisplay:10.37,2013-05-05 06:57:00,
2013-05-05 03:02:00,51.8,51.0,29.83,SE,128,11.5,11.5,97,0.11,RA,,0.24,0.0,WeatherDisplay:10.37,2013-05-05 07:02:00,
2013-05-05 03:07:00,51.8,51.0,29.83,SE,146,11.5,11.5,97,0.12,RA,,0.27,0.0,WeatherDisplay:10.37,2013-05-05 07:07:00,
2013-05-05 03:12:00,51.7,50.9,29.83,East,93,19.6,19.6,97,0.13,RA,,0.28,0.0,WeatherDisplay:10.37,2013-05-05 07:12:00,
2013-05-05 03:17:00,51.7,50.9,29.83,East,90,18.4,18.4,97,0.15,RA,,0.29,0.0,WeatherDisplay:10.37,2013-05-05 07:17:00,
2013-05-05 03:22:00,51.7,50.9,29.83,ESE,107,10.4,10.4,97,0.17,RA,,0.31,0.0,WeatherDisplay:10.37,2013-05-05 07:22:00,
2013-05-05 03:27:00,51.7,50.9,29.82,East,85,11.5,11.5,97,0.16,RA,,0.31,0.0,WeatherDisplay:10.37,2013-05-05 07:27:00,
2013-05-05 03:32:00,51.7,50.9,29.82,ESE,108,11.5,11.5,97,0.15,,,0.31,0.0,WeatherDisplay:10.37,2013-05-05 07:32:00,
2013-05-05 03:37:00,51.7,50.9,29.82,ESE,123,16.1,16.1,97,0.15,RA,,0.33,0.0,WeatherDisplay:10.37,2013-05-05 07:37:00,
2013-05-05 03:42:00,51.7,50.9,29.82,ESE,112,11.5,11.5,97,0.13,RA,,0.33,0.0,WeatherDisplay:10.37,2013-05-05 07:42:00,
2013-05-05 03:47:00,51.7,50.9,29.81,ESE,114,16.1,16.1,97,0.13,RA,,0.34,0.0,WeatherDisplay:10.37,2013-05-05 07:47:00,
2013-05-05 03:52:00,51.7,50.9,29.81,ENE,63,13.8,13.8,97,0.13,RA,,0.35,0.0,WeatherDisplay:10.37,2013-05-05 07:52:00,
2013-05-05 03:57:00,51.7,50.9,29.81,East,97,19.6,19.6,97,0.13,RA,,0.36,0.0,WeatherDisplay:10.37,2013-05-05 07:57:00,
2013-05-05 04:02:00,51.7,50.9,29.80,ESE,117,12.7,12.7,97,0.13,RA,,0.38,0.0,WeatherDisplay:10.37,2013-05-05 08:02:00,
2013-05-05 04:07:00,51.7,50.9,29.80,East,80,11.5,11.5,97,0.12,RA,,0.39,0.0,WeatherDisplay:10.37,2013-05-05 08:07:00,
2013-05-05 04:12:00,51.7,50.9,29.80,East,100,19.0,19.0,97,0.11,RA,,0.39,0.0,WeatherDisplay:10.37,2013-05-05 08:12:00,
2013-05-05 04:17:00,51.8,51.0,29.81,ESE,109,20.7,20.7,97,0.11,RA,,0.40,0.0,WeatherDisplay:10.37,2013-05-05 08:17:00,
2013-05-05 04:22:00,51.8,51.0,29.81,ESE,106,17.0,17.0,97,0.10,RA,,0.41,0.0,WeatherDisplay:10.37,2013-05-05 08:22:00,
2013-05-05 04:27:00,51.8,51.0,29.82,East,92,14.0,14.0,97,0.10,RA,,0.41,0.0,WeatherDisplay:10.37,2013-05-05 08:27:00,
2013-05-05 04:32:00,51.8,51.0,29.82,East,90,11.5,11.5,97,0.11,RA,,0.42,0.0,WeatherDisplay:10.37,2013-05-05 08:32:00,
2013-05-05 04:37:00,51.8,51.0,29.82,ESE,115,11.0,11.0,97,0.11,RA,,0.44,0.0,WeatherDisplay:10.37,2013-05-05 08:37:00,
2013-05-05 04:42:00,51.7,50.9,29.83,East,90,10.4,10.4,97,0.11,RA,,0.44,0.0,WeatherDisplay:10.37,2013-05-05 08:42:00,
2013-05-05 04:47:00,51.8,51.0,29.83,SW,221,8.1,8.1,97,0.11,RA,,0.45,0.0,WeatherDisplay:10.37,2013-05-05 08:47:00,
2013-05-05 04:52:00,51.8,51.0,29.83,SSW,211,5.8,5.8,97,0.11,RA,,0.46,0.0,WeatherDisplay:10.37,2013-05-05 08:52:00,
2013-05-05 04:57:00,51.8,51.0,29.83,SSW,213,5.8,5.8,97,0.12,RA,,0.48,0.0,WeatherDisplay:10.37,2013-05-05 08:57:00,
2013-05-05 05:02:00,51.8,51.3,29.83,SSW,213,3.5,0.0,98,0.16,RA,,0.53,0.0,WeatherDisplay:10.37,2013-05-05 09:02:00,
2013-05-05 05:07:00,51.8,51.3,29.83,SSW,213,0.0,0.4,98,0.19,RA,,0.59,0.0,WeatherDisplay:10.37,2013-05-05 09:07:00,
2013-05-05 05:12:00,51.8,51.3,29.83,SSW,213,0.0,0.0,98,0.23,RA,,0.62,0.0,WeatherDisplay:10.37,2013-05-05 09:12:00,
2013-05-05 05:17:00,51.8,51.3,29.83,SSW,213,0.0,0.0,98,0.24,RA,,0.64,0.0,WeatherDisplay:10.37,2013-05-05 09:17:00,
2013-05-05 05:22:00,51.8,51.3,29.84,SSW,213,0.0,0.0,98,0.25,RA,,0.68,0.0,WeatherDisplay:10.37,2013-05-05 09:22:00,
2013-05-05 05:27:00,51.8,51.3,29.84,SW,214,5.8,5.8,98,0.29,RA,,0.70,0.0,WeatherDisplay:10.37,2013-05-05 09:27:00,
2013-05-05 05:32:00,51.8,51.3,29.84,SW,214,0.0,0.0,98,0.30,RA,,0.74,0.0,WeatherDisplay:10.37,2013-05-05 09:32:00,
2013-05-05 05:37:00,51.8,51.3,29.84,SW,214,0.0,0.0,98,0.33,RA,,0.76,0.0,WeatherDisplay:10.37,2013-05-05 09:37:00,
2013-05-05 05:42:00,51.8,51.3,29.83,SW,214,0.0,0.0,98,0.36,RA,,0.80,0.0,WeatherDisplay:10.37,2013-05-05 09:42:00,
2013-05-05 05:47:00,51.8,51.3,29.83,SW,214,0.0,0.0,98,0.36,RA,,0.81,0.0,WeatherDisplay:10.37,2013-05-05 09:47:00,
2013-05-05 05:52:00,51.8,51.3,29.84,SW,214,0.0,0.0,98,0.36,RA,,0.82,0.0,WeatherDisplay:10.37,2013-05-05 09:52:00,
2013-05-05 05:57:00,51.8,51.3,29.83,SW,214,0.0,0.0,98,0.35,RA,,0.83,0.0,WeatherDisplay:10.37,2013-05-05 09:57:00,
2013-05-05 06:02:00,51.8,51.3,29.83,SW,214,0.0,0.0,98,0.31,RA,,0.85,0.0,WeatherDisplay:10.37,2013-05-05 10:02:00,
2013-05-05 06:07:00,51.8,51.3,29.84,SW,214,0.0,0.0,98,0.28,RA,,0.87,0.0,WeatherDisplay:10.37,2013-05-05 10:07:00,
2013-05-05 06:12:00,51.8,51.3,29.84,SW,214,0.0,0.0,98,0.25,RA,,0.87,0.0,WeatherDisplay:10.37,2013-05-05 10:12:00,
2013-05-05 06:17:00,51.8,51.3,29.84,SW,214,0.0,0.0,98,0.25,RA,,0.90,0.0,WeatherDisplay:10.37,2013-05-05 10:17:00,
2013-05-05 06:22:00,51.8,51.3,29.84,SW,214,0.0,0.0,98,0.25,RA,,0.92,0.0,WeatherDisplay:10.37,2013-05-05 10:22:00,
2013-05-05 06:27:00,51.8,51.3,29.84,SW,214,0.0,0.0,98,0.23,RA,,0.93,0.0,WeatherDisplay:10.37,2013-05-05 10:27:00,
2013-05-05 06:32:00,51.7,51.2,29.85,SW,214,0.0,0.0,98,0.22,RA,,0.96,0.0,WeatherDisplay:10.37,2013-05-05 10:32:00,
2013-05-05 06:37:00,51.8,51.3,29.85,SW,214,0.0,0.2,98,0.21,RA,,0.98,0.0,WeatherDisplay:10.37,2013-05-05 10:37:00,
2013-05-05 06:42:00,51.8,51.3,29.85,SW,214,0.0,0.0,98,0.21,RA,,1.02,0.0,WeatherDisplay:10.37,2013-05-05 10:42:00,
2013-05-05 06:47:00,51.8,51.3,29.85,SW,214,0.0,0.0,98,0.23,RA,,1.04,0.0,WeatherDisplay:10.37,2013-05-05 10:47:00,
2013-05-05 06:52:00,51.7,51.2,29.85,SW,214,0.0,0.0,98,0.24,RA,,1.06,0.0,WeatherDisplay:10.37,2013-05-05 10:52:00,
2013-05-05 06:57:00,51.7,51.2,29.86,SW,214,0.0,0.0,98,0.25,RA,,1.09,0.0,WeatherDisplay:10.37,2013-05-05 10:57:00,
2013-05-05 07:02:00,51.7,51.2,29.86,SW,214,0.0,0.0,98,0.25,RA,,1.10,0.0,WeatherDisplay:10.37,2013-05-05 11:02:00,
2013-05-05 07:07:00,51.8,51.3,29.84,SSW,213,3.5,3.5,98,0.24,RA,,1.11,9.0,WeatherDisplay:10.37,2013-05-05 11:07:00,
2013-05-05 07:12:00,51.8,51.3,29.84,ENE,76,3.5,3.5,98,0.25,RA,,1.13,9.0,WeatherDisplay:10.37,2013-05-05 11:12:00,
2013-05-05 07:17:00,51.8,51.3,29.85,ENE,76,0.0,0.0,98,0.24,RA,,1.14,0.0,WeatherDisplay:10.37,2013-05-05 11:17:00,
2013-05-05 07:22:00,51.8,51.3,29.86,ENE,76,0.0,0.0,98,0.23,RA,,1.15,0.0,WeatherDisplay:10.37,2013-05-05 11:22:00,
2013-05-05 07:27:00,51.8,51.3,29.85,ENE,76,0.0,0.0,98,0.23,RA,,1.16,5.0,WeatherDisplay:10.37,2013-05-05 11:27:00,
2013-05-05 07:32:00,51.8,51.3,29.85,ENE,76,0.0,0.0,98,0.21,RA,,1.16,9.0,WeatherDisplay:10.37,2013-05-05 11:32:00,
2013-05-05 07:37:00,51.8,51.3,29.85,ENE,76,0.0,0.0,98,0.19,RA,,1.17,9.0,WeatherDisplay:10.37,2013-05-05 11:37:00,
2013-05-05 07:42:00,51.9,51.4,29.85,ENE,76,0.0,0.0,98,0.16,RA,,1.17,11.0,WeatherDisplay:10.37,2013-05-05 11:42:00,
2013-05-05 07:47:00,51.9,51.4,29.85,ENE,76,0.0,0.0,98,0.13,,,1.17,14.0,WeatherDisplay:10.37,2013-05-05 11:47:00,
2013-05-05 07:52:00,51.9,51.4,29.86,ENE,76,0.0,0.0,98,0.12,RA,,1.19,11.0,WeatherDisplay:10.37,2013-05-05 11:52:00,
2013-05-05 07:57:00,51.9,51.4,29.86,ENE,76,3.5,3.5,98,0.10,RA,,1.19,12.0,WeatherDisplay:10.37,2013-05-05 11:57:00,
2013-05-05 08:02:00,51.9,51.4,29.86,ENE,76,3.5,3.5,98,0.08,OVC,,1.19,11.0,WeatherDisplay:10.37,2013-05-05 12:02:00,
2013-05-05 08:07:00,51.8,51.3,29.86,NNE,19,3.5,3.5,98,0.07,OVC,,1.19,9.0,WeatherDisplay:10.37,2013-05-05 12:07:00,
2013-05-05 08:12:00,51.8,51.3,29.87,NNE,19,3.5,3.5,98,0.06,OVC,,1.19,11.0,WeatherDisplay:10.37,2013-05-05 12:12:00,
2013-05-05 08:17:00,51.8,51.3,29.86,NNE,19,0.0,0.0,98,0.05,OVC,,1.19,12.0,WeatherDisplay:10.37,2013-05-05 12:17:00,
2013-05-05 08:22:00,51.8,51.3,29.86,East,84,10.4,10.4,98,0.06,RA,,1.21,21.0,WeatherDisplay:10.37,2013-05-05 12:22:00,
2013-05-05 08:27:00,51.7,51.2,29.86,East,98,7.0,7.0,98,0.05,RA,,1.21,28.0,WeatherDisplay:10.37,2013-05-05 12:27:00,
2013-05-05 08:32:00,51.6,51.1,29.86,ESE,112,5.8,5.8,98,0.05,OVC,,1.21,21.0,WeatherDisplay:10.37,2013-05-05 12:32:00,
2013-05-05 08:37:00,51.5,51.0,29.86,East,101,11.5,11.5,98,0.05,RA,,1.22,30.0,WeatherDisplay:10.37,2013-05-05 12:37:00,
2013-05-05 08:42:00,51.5,51.0,29.86,SE,139,11.5,11.5,98,0.05,RA,,1.22,28.0,WeatherDisplay:10.37,2013-05-05 12:42:00,
2013-05-05 08:47:00,51.5,51.0,29.86,ESE,117,3.5,3.5,98,0.05,OVC,,1.22,44.0,WeatherDisplay:10.37,2013-05-05 12:47:00,
2013-05-05 08:52:00,51.5,51.0,29.86,East,84,5.8,5.8,98,0.04,OVC,,1.22,62.0,WeatherDisplay:10.37,2013-05-05 12:52:00,
2013-05-05 08:57:00,51.5,51.0,29.86,ESE,103,4.6,4.6,98,0.04,OVC,,1.22,40.0,WeatherDisplay:10.37,2013-05-05 12:57:00,
2013-05-05 09:02:00,51.6,51.1,29.86,East,93,0.0,0.0,98,0.04,OVC,,1.22,53.0,WeatherDisplay:10.37,2013-05-05 13:02:00,
2013-05-05 09:07:00,51.6,51.1,29.86,East,79,5.8,5.8,98,0.04,OVC,,1.22,44.0,WeatherDisplay:10.37,2013-05-05 13:07:00,
2013-05-05 09:12:00,51.7,51.2,29.86,East,79,2.0,2.0,98,0.04,OVC,,1.22,54.0,WeatherDisplay:10.37,2013-05-05 13:12:00,
2013-05-05 09:17:00,51.7,51.2,29.86,ESE,113,9.0,9.0,98,0.04,OVC,,1.22,42.0,WeatherDisplay:10.37,2013-05-05 13:17:00,
2013-05-05 09:22:00,51.7,51.2,29.87,East,101,6.9,6.9,98,0.01,OVC,,1.22,70.0,WeatherDisplay:10.37,2013-05-05 13:22:00,
2013-05-05 09:27:00,51.7,51.2,29.87,ESE,110,3.5,3.5,98,0.01,OVC,,1.22,109.0,WeatherDisplay:10.37,2013-05-05 13:27:00,
2013-05-05 09:32:00,51.7,51.2,29.87,ESE,107,1.2,0.0,98,0.01,OVC,,1.22,65.0,WeatherDisplay:10.37,2013-05-05 13:32:00,
2013-05-05 09:37:00,51.8,51.3,29.87,SE,126,7.0,7.0,98,0.01,RA,,1.23,83.0,WeatherDisplay:10.37,2013-05-05 13:37:00,
2013-05-05 09:42:00,51.9,51.4,29.88,East,98,2.3,2.3,98,0.01,RA,,1.23,79.0,WeatherDisplay:10.37,2013-05-05 13:42:00,
2013-05-05 09:48:00,51.9,51.4,29.88,East,99,0.0,0.0,98,0.01,OVC,,1.23,69.0,WeatherDisplay:10.37,2013-05-05 13:48:00,
2013-05-05 09:53:00,51.9,51.4,29.88,East,99,0.0,0.0,98,0.01,OVC,,1.23,97.0,WeatherDisplay:10.37,2013-05-05 13:53:00,
2013-05-05 09:58:00,52.0,51.5,29.88,East,98,3.5,3.5,98,0.02,RA,,1.25,100.0,WeatherDisplay:10.37,2013-05-05 13:58:00,
2013-05-05 10:03:00,52.1,51.6,29.88,East,89,5.8,5.8,98,0.02,RA,,1.25,98.0,WeatherDisplay:10.37,2013-05-05 14:03:00,
2013-05-05 10:08:00,52.0,51.5,29.88,East,89,0.0,0.0,98,0.04,RA,,1.26,93.0,WeatherDisplay:10.37,2013-05-05 14:08:00,
2013-05-05 10:13:00,52.0,51.5,29.88,East,88,0.0,0.0,98,0.05,RA,,1.27,81.0,WeatherDisplay:10.37,2013-05-05 14:13:00,
2013-05-05 10:18:00,52.0,51.5,29.87,East,88,0.0,0.0,98,0.05,RA,,1.27,83.0,WeatherDisplay:10.37,2013-05-05 14:18:00,
2013-05-05 10:23:00,52.1,51.6,29.88,East,85,3.5,0.0,98,0.06,RA,,1.28,74.0,WeatherDisplay:10.37,2013-05-05 14:23:00,
2013-05-05 10:28:00,52.1,51.6,29.88,East,85,0.0,0.0,98,0.07,RA,,1.29,149.0,WeatherDisplay:10.37,2013-05-05 14:28:00,
2013-05-05 10:33:00,52.1,51.6,29.88,East,85,0.0,0.0,98,0.08,RA,,1.31,167.0,WeatherDisplay:10.37,2013-05-05 14:33:00,
2013-05-05 10:38:00,52.4,51.9,29.88,East,85,4.6,4.6,98,0.10,RA,,1.33,137.0,WeatherDisplay:10.37,2013-05-05 14:38:00,
2013-05-05 10:43:00,52.5,52.0,29.88,East,86,0.0,0.0,98,0.10,RA,,1.33,116.0,WeatherDisplay:10.37,2013-05-05 14:43:00,
2013-05-05 10:48:00,52.5,52.0,29.88,East,86,3.5,3.5,98,0.11,RA,,1.34,102.0,WeatherDisplay:10.37,2013-05-05 14:48:00,
2013-05-05 10:53:00,52.4,51.9,29.88,East,86,0.0,0.0,98,0.11,RA,,1.34,111.0,WeatherDisplay:10.37,2013-05-05 14:53:00,
2013-05-05 10:58:00,52.4,51.9,29.88,East,86,1.2,0.0,98,0.11,RA,,1.36,174.0,WeatherDisplay:10.37,2013-05-05 14:58:00,
2013-05-05 11:03:00,52.5,52.0,29.88,East,90,5.8,5.8,98,0.12,RA,,1.37,113.0,WeatherDisplay:10.37,2013-05-05 15:03:00,
2013-05-05 11:08:00,52.5,52.0,29.88,East,92,3.5,3.5,98,0.11,RA,,1.37,149.0,WeatherDisplay:10.37,2013-05-05 15:08:00,
2013-05-05 11:13:00,52.5,52.0,29.88,East,92,0.0,0.0,98,0.11,RA,,1.38,165.0,WeatherDisplay:10.37,2013-05-05 15:13:00,
2013-05-05 11:18:00,52.6,52.1,29.88,East,92,0.0,0.0,98,0.11,RA,,1.38,185.0,WeatherDisplay:10.37,2013-05-05 15:18:00,
2013-05-05 11:23:00,52.9,52.4,29.88,East,92,0.0,0.0,98,0.10,OVC,,1.38,241.0,WeatherDisplay:10.37,2013-05-05 15:23:00,
2013-05-05 11:28:00,53.1,52.6,29.88,East,92,1.2,0.0,98,0.08,OVC,,1.38,250.0,WeatherDisplay:10.37,2013-05-05 15:28:00,
2013-05-05 11:33:00,53.2,52.7,29.88,East,100,9.2,9.2,98,0.07,OVC,,1.38,176.0,WeatherDisplay:10.37,2013-05-05 15:33:00,
2013-05-05 11:38:00,53.1,52.6,29.88,ESE,116,5.8,5.8,98,0.05,OVC,,1.38,227.0,WeatherDisplay:10.37,2013-05-05 15:38:00,
2013-05-05 11:43:00,53.1,52.6,29.88,East,80,5.8,5.8,98,0.05,OVC,,1.39,156.0,WeatherDisplay:10.37,2013-05-05 15:43:00,
2013-05-05 11:48:00,53.0,52.5,29.88,East,95,3.5,3.5,98,0.05,RA,,1.39,156.0,WeatherDisplay:10.37,2013-05-05 15:48:00,
2013-05-05 11:53:00,53.0,52.5,29.88,East,86,4.0,4.0,98,0.05,RA,,1.39,142.0,WeatherDisplay:10.37,2013-05-05 15:53:00,
2013-05-05 11:58:00,53.0,52.5,29.88,East,86,4.6,4.6,98,0.04,CLR,,1.39,225.0,WeatherDisplay:10.37,2013-05-05 15:58:00,
2013-05-05 12:03:00,53.1,52.6,29.88,East,96,9.2,9.2,98,0.02,CLR,,1.40,155.0,WeatherDisplay:10.37,2013-05-05 16:03:00,
2013-05-05 12:08:00,53.1,52.6,29.88,East,84,11.5,11.5,98,0.04,RA,,1.40,264.0,WeatherDisplay:10.37,2013-05-05 16:08:00,
2013-05-05 12:13:00,53.0,52.5,29.88,East,101,11.5,11.5,98,0.02,RA,,1.40,295.0,WeatherDisplay:10.37,2013-05-05 16:13:00,
2013-05-05 12:18:00,53.0,52.5,29.88,East,83,3.0,3.0,98,0.02,CLR,,1.40,334.0,WeatherDisplay:10.37,2013-05-05 16:18:00,
2013-05-05 12:23:00,53.2,52.7,29.87,NE,49,5.8,5.8,98,0.02,CLR,,1.40,355.0,WeatherDisplay:10.37,2013-05-05 16:23:00,
2013-05-05 12:28:00,53.3,52.8,29.87,ENE,76,6.9,6.9,98,0.02,CLR,,1.40,223.0,WeatherDisplay:10.37,2013-05-05 16:28:00,
2013-05-05 12:33:00,53.2,52.7,29.87,ESE,109,9.2,9.2,98,0.02,CLR,,1.40,197.0,WeatherDisplay:10.37,2013-05-05 16:33:00,
2013-05-05 12:38:00,53.0,52.5,29.88,East,91,8.1,8.1,98,0.02,CLR,,1.40,221.0,WeatherDisplay:10.37,2013-05-05 16:38:00,
2013-05-05 12:43:00,52.9,52.4,29.87,ESE,122,10.0,10.0,98,0.02,CLR,,1.40,253.0,WeatherDisplay:10.37,2013-05-05 16:43:00,
2013-05-05 12:48:00,52.8,52.3,29.87,ESE,107,5.8,5.8,98,0.01,CLR,,1.40,315.0,WeatherDisplay:10.37,2013-05-05 16:48:00,
2013-05-05 12:53:00,53.1,52.6,29.87,East,100,4.0,4.0,98,0.01,CLR,,1.40,258.0,WeatherDisplay:10.37,2013-05-05 16:53:00,
2013-05-05 12:58:00,53.3,52.8,29.87,ENE,67,5.8,5.8,98,0.01,CLR,,1.40,313.0,WeatherDisplay:10.37,2013-05-05 16:58:00,
2013-05-05 13:03:00,53.5,52.9,29.87,East,92,6.9,6.9,98,0.01,CLR,,1.40,339.0,WeatherDisplay:10.37,2013-05-05 17:03:00,
2013-05-05 13:08:00,53.6,53.0,29.87,East,91,3.5,0.0,98,0.00,CLR,,1.40,383.0,WeatherDisplay:10.37,2013-05-05 17:08:00,
2013-05-05 13:13:00,53.7,53.1,29.86,East,82,9.0,9.0,98,0.00,CLR,,1.40,343.0,WeatherDisplay:10.37,2013-05-05 17:13:00,
2013-05-05 13:18:00,53.8,53.2,29.86,East,81,10.4,10.4,98,0.00,CLR,,1.40,471.0,WeatherDisplay:10.37,2013-05-05 17:18:00,
2013-05-05 13:23:00,53.7,53.1,29.86,NE,36,10.4,10.4,98,0.00,CLR,,1.40,308.0,WeatherDisplay:10.37,2013-05-05 17:23:00,
2013-05-05 13:28:00,53.7,52.9,29.86,ESE,104,9.2,9.2,97,0.00,CLR,,1.40,422.0,WeatherDisplay:10.37,2013-05-05 17:28:00,
2013-05-05 13:33:00,53.8,53.2,29.86,East,90,12.7,12.7,98,0.00,CLR,,1.40,513.0,WeatherDisplay:10.37,2013-05-05 17:33:00,
2013-05-05 13:38:00,54.1,53.5,29.85,ESE,107,12.7,12.7,98,0.00,CLR,,1.40,664.0,WeatherDisplay:10.37,2013-05-05 17:38:00,
2013-05-05 13:43:00,54.3,53.7,29.86,ESE,104,5.8,5.8,98,0.00,CLR,,1.40,719.0,WeatherDisplay:10.37,2013-05-05 17:43:00,
2013-05-05 13:48:00,54.7,54.1,29.85,East,101,13.8,13.8,98,0.00,CLR,,1.40,529.0,WeatherDisplay:10.37,2013-05-05 17:48:00,
2013-05-05 13:53:00,54.7,53.9,29.86,ESE,110,12.7,12.7,97,0.00,CLR,,1.40,362.0,WeatherDisplay:10.37,2013-05-05 17:53:00,
2013-05-05 13:58:00,54.4,53.6,29.85,ESE,118,11.5,11.5,97,0.00,CLR,,1.40,329.0,WeatherDisplay:10.37,2013-05-05 17:58:00,
2013-05-05 14:03:00,54.1,53.0,29.86,ESE,108,11.5,11.5,96,0.00,SCT,,1.40,223.0,WeatherDisplay:10.37,2013-05-05 18:03:00,
2013-05-05 14:08:00,54.1,53.0,29.86,East,100,10.4,10.4,96,0.00,SCT,,1.40,279.0,WeatherDisplay:10.37,2013-05-05 18:08:00,
2013-05-05 14:13:00,54.0,52.9,29.85,ESE,109,12.7,12.7,96,0.00,FEW,,1.40,359.0,WeatherDisplay:10.37,2013-05-05 18:13:00,
2013-05-05 14:18:00,54.0,52.9,29.86,ESE,114,8.1,8.1,96,0.00,CLR,,1.40,432.0,WeatherDisplay:10.37,2013-05-05 18:18:00,
2013-05-05 14:23:00,54.3,53.5,29.86,East,86,6.9,6.9,97,0.00,SCT,,1.40,336.0,WeatherDisplay:10.37,2013-05-05 18:23:00,
2013-05-05 14:28:00,54.5,53.7,29.85,ESE,123,9.2,9.2,97,0.00,SCT,,1.40,306.0,WeatherDisplay:10.37,2013-05-05 18:28:00,
2013-05-05 14:33:00,54.6,53.8,29.85,East,88,11.5,11.5,97,0.00,SCT,,1.40,287.0,WeatherDisplay:10.37,2013-05-05 18:33:00,
2013-05-05 14:38:00,54.6,53.5,29.85,SE,129,9.2,9.2,96,0.00,SCT,,1.40,334.0,WeatherDisplay:10.37,2013-05-05 18:38:00,
2013-05-05 14:43:00,54.4,53.3,29.85,ESE,117,6.9,6.9,96,0.00,SCT,,1.40,332.0,WeatherDisplay:10.37,2013-05-05 18:43:00,
2013-05-05 14:48:00,54.6,53.5,29.85,East,83,6.9,6.9,96,0.00,SCT,,1.40,397.0,WeatherDisplay:10.37,2013-05-05 18:48:00,
2013-05-05 14:53:00,54.8,53.7,29.85,East,82,9.2,9.2,96,0.00,SCT,,1.40,357.0,WeatherDisplay:10.37,2013-05-05 18:53:00,
2013-05-05 14:58:00,54.7,53.6,29.85,ESE,104,11.5,11.5,96,0.00,SCT,,1.40,452.0,WeatherDisplay:10.37,2013-05-05 18:58:00,
2013-05-05 15:03:00,54.9,53.8,29.85,East,88,6.0,6.0,96,0.00,SCT,,1.40,383.0,WeatherDisplay:10.37,2013-05-05 19:03:00,
2013-05-05 15:08:00,55.0,53.6,29.85,East,81,6.9,6.9,95,0.00,BKN,,1.40,202.0,WeatherDisplay:10.37,2013-05-05 19:08:00,
2013-05-05 15:13:00,55.0,53.6,29.85,ENE,74,10.4,10.4,95,0.00,BKN,,1.40,176.0,WeatherDisplay:10.37,2013-05-05 19:13:00,
2013-05-05 15:18:00,54.9,53.5,29.85,East,95,5.8,5.8,95,0.00,BKN,,1.40,141.0,WeatherDisplay:10.37,2013-05-05 19:18:00,
2013-05-05 15:23:00,54.8,53.4,29.85,East,97,0.0,0.0,95,0.00,BKN,,1.40,202.0,WeatherDisplay:10.37,2013-05-05 19:23:00,
2013-05-05 15:28:00,54.7,53.3,29.85,ESE,113,5.8,5.8,95,0.00,BKN,,1.40,278.0,WeatherDisplay:10.37,2013-05-05 19:28:00,
2013-05-05 15:33:00,54.7,53.3,29.85,ESE,120,6.9,6.9,95,0.00,BKN,,1.40,227.0,WeatherDisplay:10.37,2013-05-05 19:33:00,
2013-05-05 15:38:00,54.7,53.3,29.85,ESE,110,0.0,0.0,95,0.00,BKN,,1.40,179.0,WeatherDisplay:10.37,2013-05-05 19:38:00,
2013-05-05 15:43:00,54.8,53.4,29.84,East,99,5.8,5.8,95,0.00,OVC,,1.40,44.0,WeatherDisplay:10.37,2013-05-05 19:43:00,
2013-05-05 15:48:00,54.9,53.5,29.84,SE,125,4.6,4.6,95,0.00,BKN,,1.40,163.0,WeatherDisplay:10.37,2013-05-05 19:48:00,
2013-05-05 15:53:00,54.9,53.2,29.85,ESE,116,6.9,6.9,94,0.00,BKN,,1.40,142.0,WeatherDisplay:10.37,2013-05-05 19:53:00,
2013-05-05 15:58:00,55.0,53.6,29.84,East,100,1.0,0.0,95,0.00,BKN,,1.40,151.0,WeatherDisplay:10.37,2013-05-05 19:58:00,
2013-05-05 16:03:00,55.1,53.7,29.84,East,101,2.3,2.3,95,0.00,BKN,,1.40,211.0,WeatherDisplay:10.37,2013-05-05 20:03:00,
2013-05-05 16:08:00,55.2,53.8,29.84,ESE,111,6.9,6.9,95,0.00,BKN,,1.40,155.0,WeatherDisplay:10.37,2013-05-05 20:08:00,
2013-05-05 16:13:00,55.3,53.9,29.84,ESE,109,6.9,6.9,95,0.00,BKN,,1.40,279.0,WeatherDisplay:10.37,2013-05-05 20:13:00,
2013-05-05 16:18:00,55.5,54.1,29.83,SE,128,0.0,0.0,95,0.00,BKN,,1.40,422.0,WeatherDisplay:10.37,2013-05-05 20:18:00,
2013-05-05 16:23:00,55.9,54.5,29.83,East,101,3.5,3.5,95,0.00,BKN,,1.40,355.0,WeatherDisplay:10.37,2013-05-05 20:23:00,
2013-05-05 16:28:00,56.5,55.1,29.83,SE,127,10.4,10.4,95,0.00,BKN,,1.40,355.0,WeatherDisplay:10.37,2013-05-05 20:28:00,
2013-05-05 16:33:00,57.1,55.7,29.83,ESE,107,4.0,4.0,95,0.00,BKN,,1.40,388.0,WeatherDisplay:10.37,2013-05-05 20:33:00,
2013-05-05 16:38:00,57.4,55.4,29.82,East,98,10.4,10.4,93,0.00,BKN,,1.40,290.0,WeatherDisplay:10.37,2013-05-05 20:38:00,
2013-05-05 16:43:00,57.1,54.8,29.82,SE,145,10.4,10.4,92,0.00,BKN,,1.40,262.0,WeatherDisplay:10.37,2013-05-05 20:43:00,
2013-05-05 16:48:00,57.1,55.1,29.82,East,82,16.1,16.1,93,0.00,BKN,,1.40,315.0,WeatherDisplay:10.37,2013-05-05 20:48:00,
2013-05-05 16:53:00,57.1,55.1,29.81,NE,52,12.0,12.0,93,0.00,BKN,,1.40,272.0,WeatherDisplay:10.37,2013-05-05 20:53:00,
2013-05-05 16:59:00,57.3,55.3,29.82,East,87,13.8,13.8,93,0.00,BKN,,1.40,243.0,WeatherDisplay:10.37,2013-05-05 20:59:00,
2013-05-05 17:04:00,57.1,54.8,29.82,East,91,11.5,11.5,92,0.00,BKN,,1.40,200.0,WeatherDisplay:10.37,2013-05-05 21:04:00,
2013-05-05 17:09:00,57.0,54.7,29.82,East,94,11.5,11.5,92,0.00,BKN,,1.40,181.0,WeatherDisplay:10.37,2013-05-05 21:09:00,
2013-05-05 17:14:00,56.9,54.6,29.81,East,88,5.0,5.0,92,0.00,BKN,,1.40,176.0,WeatherDisplay:10.37,2013-05-05 21:14:00,
2013-05-05 17:19:00,56.8,54.5,29.81,East,96,6.0,6.0,92,0.00,BKN,,1.40,199.0,WeatherDisplay:10.37,2013-05-05 21:19:00,
2013-05-05 17:24:00,56.7,54.1,29.81,East,86,4.0,4.0,91,0.00,BKN,,1.40,186.0,WeatherDisplay:10.37,2013-05-05 21:24:00,
2013-05-05 17:29:00,56.8,54.5,29.80,ENE,67,10.4,10.4,92,0.00,BKN,,1.40,243.0,WeatherDisplay:10.37,2013-05-05 21:29:00,
2013-05-05 17:34:00,56.7,54.4,29.80,East,95,5.8,5.8,92,0.00,BKN,,1.40,186.0,WeatherDisplay:10.37,2013-05-05 21:34:00,
2013-05-05 17:39:00,56.6,54.3,29.81,ENE,76,4.6,4.6,92,0.00,BKN,,1.40,190.0,WeatherDisplay:10.37,2013-05-05 21:39:00,
2013-05-05 17:44:00,56.6,54.6,29.81,East,81,4.6,4.6,93,0.00,BKN,,1.40,251.0,WeatherDisplay:10.37,2013-05-05 21:44:00,
2013-05-05 17:49:00,56.9,54.9,29.80,East,80,3.5,3.5,93,0.00,BKN,,1.40,255.0,WeatherDisplay:10.37,2013-05-05 21:49:00,
2013-05-05 17:54:00,57.1,54.8,29.80,ESE,105,6.0,6.0,92,0.00,BKN,,1.40,290.0,WeatherDisplay:10.37,2013-05-05 21:54:00,
2013-05-05 17:59:00,57.3,55.0,29.80,East,96,4.0,4.0,92,0.00,SCT,,1.40,654.0,WeatherDisplay:10.37,2013-05-05 21:59:00,
2013-05-05 18:04:00,57.3,54.7,29.80,East,92,6.9,6.9,91,0.00,BKN,,1.40,258.0,WeatherDisplay:10.37,2013-05-05 22:04:00,
2013-05-05 18:09:00,57.4,54.8,29.80,East,97,4.6,4.6,91,0.00,SCT,,1.40,276.0,WeatherDisplay:10.37,2013-05-05 22:09:00,
2013-05-05 18:14:00,57.7,54.8,29.80,East,99,7.0,7.0,90,0.00,BKN,,1.40,557.0,WeatherDisplay:10.37,2013-05-05 22:14:00,
2013-05-05 18:19:00,57.7,55.1,29.80,East,85,6.9,6.9,91,0.00,BKN,,1.40,128.0,WeatherDisplay:10.37,2013-05-05 22:19:00,
2013-05-05 18:24:00,57.5,54.6,29.80,East,96,10.4,10.4,90,0.00,BKN,,1.40,113.0,WeatherDisplay:10.37,2013-05-05 22:24:00,
2013-05-05 18:29:00,57.2,54.6,29.80,ENE,67,5.0,5.0,91,0.00,BKN,,1.40,174.0,WeatherDisplay:10.37,2013-05-05 22:29:00,
2013-05-05 18:34:00,57.3,55.0,29.79,ENE,74,10.4,10.4,92,0.00,BKN,,1.40,439.0,WeatherDisplay:10.37,2013-05-05 22:34:00,
2013-05-05 18:39:00,57.2,54.6,29.79,East,98,10.4,10.4,91,0.00,BKN,,1.40,160.0,WeatherDisplay:10.37,2013-05-05 22:39:00,
2013-05-05 18:44:00,57.1,54.5,29.79,East,80,11.5,11.5,91,0.00,BKN,,1.40,376.0,WeatherDisplay:10.37,2013-05-05 22:44:00,
2013-05-05 18:49:00,57.1,54.5,29.79,East,81,7.0,7.0,91,0.00,BKN,,1.40,322.0,WeatherDisplay:10.37,2013-05-05 22:49:00,
2013-05-05 18:54:00,57.3,54.7,29.79,ENE,77,5.8,5.8,91,0.00,BKN,,1.40,292.0,WeatherDisplay:10.37,2013-05-05 22:54:00,
2013-05-05 18:59:00,57.4,54.5,29.79,ENE,71,8.1,8.1,90,0.00,BKN,,1.40,155.0,WeatherDisplay:10.37,2013-05-05 22:59:00,
2013-05-05 19:04:00,57.2,54.3,29.78,ENE,73,9.0,9.0,90,0.00,CLR,,1.40,39.0,WeatherDisplay:10.37,2013-05-05 23:04:00,
2013-05-05 19:09:00,56.7,53.8,29.77,East,89,9.2,9.2,90,0.00,CLR,,1.40,39.0,WeatherDisplay:10.37,2013-05-05 23:09:00,
2013-05-05 19:14:00,56.1,53.2,29.78,East,82,12.7,12.7,90,0.00,CLR,,1.40,32.0,WeatherDisplay:10.37,2013-05-05 23:14:00,
2013-05-05 19:19:00,55.7,53.1,29.78,East,84,5.8,5.8,91,0.00,CLR,,1.40,18.0,WeatherDisplay:10.37,2013-05-05 23:19:00,
2013-05-05 19:24:00,55.3,53.0,29.79,East,81,3.5,3.5,92,0.00,CLR,,1.40,11.0,WeatherDisplay:10.37,2013-05-05 23:24:00,
2013-05-05 19:29:00,55.1,52.8,29.79,East,80,5.0,5.0,92,0.00,CLR,,1.40,5.0,WeatherDisplay:10.37,2013-05-05 23:29:00,
2013-05-05 19:34:00,54.9,52.9,29.79,East,93,5.8,5.8,93,0.00,CLR,,1.40,7.0,WeatherDisplay:10.37,2013-05-05 23:34:00,
2013-05-05 19:39:00,54.8,52.8,29.80,East,90,0.0,0.0,93,0.00,CLR,,1.40,0.0,WeatherDisplay:10.37,2013-05-05 23:39:00,
2013-05-05 19:44:00,54.6,52.6,29.81,East,90,0.0,0.0,93,0.00,CLR,,1.40,0.0,WeatherDisplay:10.37,2013-05-05 23:44:00,
2013-05-05 19:49:00,54.6,52.9,29.81,East,90,3.5,3.5,94,0.00,CLR,,1.40,0.0,WeatherDisplay:10.37,2013-05-05 23:49:00,
2013-05-05 19:54:00,54.5,52.8,29.82,East,90,0.0,0.0,94,0.00,CLR,,1.40,0.0,WeatherDisplay:10.37,2013-05-05 23:54:00,
2013-05-05 19:59:00,54.5,52.8,29.81,East,90,0.0,0.0,94,0.00,CLR,,1.40,0.0,WeatherDisplay:10.37,2013-05-05 23:59:00,
2013-05-05 20:04:00,54.4,52.7,29.82,East,90,0.0,0.0,94,0.00,CLR,,1.40,0.0,WeatherDisplay:10.37,2013-05-06 00:04:00,
2013-05-05 20:09:00,54.3,52.9,29.81,East,90,0.0,0.0,95,0.01,RA,,1.42,0.0,WeatherDisplay:10.37,2013-05-06 00:09:00,
2013-05-05 20:14:00,54.3,52.9,29.81,East,90,3.5,0.0,95,0.02,RA,,1.44,0.0,WeatherDisplay:10.37,2013-05-06 00:14:00,
2013-05-05 20:19:00,54.1,52.7,29.81,East,86,2.3,2.3,95,0.10,RA,,1.51,0.0,WeatherDisplay:10.37,2013-05-06 00:19:00,
2013-05-05 20:24:00,53.9,52.5,29.80,NW,309,6.0,6.0,95,0.13,RA,,1.54,0.0,WeatherDisplay:10.37,2013-05-06 00:24:00,
2013-05-05 20:29:00,53.5,52.1,29.80,NW,310,5.8,5.8,95,0.16,RA,,1.56,0.0,WeatherDisplay:10.37,2013-05-06 00:29:00,
2013-05-05 20:34:00,53.1,51.4,29.81,NW,309,5.8,5.8,94,0.18,RA,,1.59,0.0,WeatherDisplay:10.37,2013-05-06 00:34:00,
2013-05-05 20:39:00,52.8,51.4,29.81,NNE,31,9.2,9.2,95,0.19,RA,,1.60,0.0,WeatherDisplay:10.37,2013-05-06 00:39:00,
2013-05-05 20:44:00,52.4,51.0,29.82,NNE,24,4.6,4.6,95,0.28,RA,,1.68,0.0,WeatherDisplay:10.37,2013-05-06 00:44:00,
2013-05-05 20:49:00,52.1,50.7,29.81,WNW,293,10.4,10.4,95,0.30,RA,,1.72,0.0,WeatherDisplay:10.37,2013-05-06 00:49:00,
2013-05-05 20:54:00,51.8,50.4,29.81,WNW,288,10.4,10.4,95,0.38,RA,,1.79,0.0,WeatherDisplay:10.37,2013-05-06 00:54:00,
2013-05-05 20:59:00,51.6,50.2,29.81,WNW,285,9.2,9.2,95,0.41,RA,,1.81,0.0,WeatherDisplay:10.37,2013-05-06 00:59:00,
2013-05-05 21:04:00,51.5,50.4,29.83,WSW,257,16.1,16.1,96,0.42,RA,,1.84,0.0,WeatherDisplay:10.37,2013-05-06 01:04:00,
2013-05-05 21:09:00,51.3,50.2,29.83,SW,236,11.5,11.5,96,0.46,RA,,1.88,0.0,WeatherDisplay:10.37,2013-05-06 01:09:00,
2013-05-05 21:14:00,51.1,50.0,29.83,WSW,257,11.5,11.5,96,0.50,RA,,1.92,0.0,WeatherDisplay:10.37,2013-05-06 01:14:00,
2013-05-05 21:19:00,50.8,49.7,29.83,West,271,16.1,16.1,96,0.45,RA,,1.95,0.0,WeatherDisplay:10.37,2013-05-06 01:19:00,
2013-05-05 21:24:00,50.3,48.9,29.84,West,260,17.3,17.3,95,0.42,RA,,1.96,0.0,WeatherDisplay:10.37,2013-05-06 01:24:00,
2013-05-05 21:29:00,49.9,48.5,29.84,West,281,11.5,11.5,95,0.41,RA,,1.97,0.0,WeatherDisplay:10.37,2013-05-06 01:29:00,
2013-05-05 21:34:00,49.7,48.3,29.84,West,277,16.1,16.1,95,0.41,RA,,2.00,0.0,WeatherDisplay:10.37,2013-05-06 01:34:00,
2013-05-05 21:39:00,49.6,48.5,29.83,WNW,294,15.0,15.0,96,0.41,RA,,2.02,0.0,WeatherDisplay:10.37,2013-05-06 01:39:00,
2013-05-05 21:44:00,49.5,48.1,29.83,West,275,13.0,13.0,95,0.35,RA,,2.04,0.0,WeatherDisplay:10.37,2013-05-06 01:44:00,
2013-05-05 21:49:00,49.3,47.9,29.82,WNW,292,9.2,9.2,95,0.35,RA,,2.07,0.0,WeatherDisplay:10.37,2013-05-06 01:49:00,
2013-05-05 21:54:00,49.1,47.7,29.82,WNW,303,9.0,9.0,95,0.30,RA,,2.09,0.0,WeatherDisplay:10.37,2013-05-06 01:54:00,
2013-05-05 21:59:00,49.0,47.6,29.82,NW,306,11.5,11.5,95,0.28,RA,,2.09,0.0,WeatherDisplay:10.37,2013-05-06 01:59:00,
2013-05-05 22:04:00,48.9,47.5,29.82,NW,309,4.0,4.0,95,0.27,RA,,2.11,0.0,WeatherDisplay:10.37,2013-05-06 02:04:00,
2013-05-05 22:09:00,48.8,47.4,29.83,West,259,6.9,6.9,95,0.23,RA,,2.11,0.0,WeatherDisplay:10.37,2013-05-06 02:09:00,
2013-05-05 22:14:00,48.8,47.4,29.84,WSW,246,10.4,10.4,95,0.18,,,2.11,0.0,WeatherDisplay:10.37,2013-05-06 02:14:00,
2013-05-05 22:19:00,48.8,47.7,29.85,WSW,256,15.0,15.0,96,0.16,CLR,,2.11,0.0,WeatherDisplay:10.37,2013-05-06 02:19:00,
2013-05-05 22:24:00,48.9,47.8,29.85,WSW,256,13.8,13.8,96,0.16,RA,,2.12,0.0,WeatherDisplay:10.37,2013-05-06 02:24:00,
2013-05-05 22:29:00,48.9,47.8,29.85,WNW,282,13.8,13.8,96,0.15,RA,,2.12,0.0,WeatherDisplay:10.37,2013-05-06 02:29:00,
2013-05-05 22:34:00,48.8,47.7,29.85,WSW,254,10.4,10.4,96,0.12,,,2.12,0.0,WeatherDisplay:10.37,2013-05-06 02:34:00,
2013-05-05 22:39:00,48.8,47.7,29.86,WSW,245,11.5,11.5,96,0.10,CLR,,2.12,0.0,WeatherDisplay:10.37,2013-05-06 02:39:00,
2013-05-05 22:44:00,48.9,47.8,29.87,WSW,257,9.2,9.2,96,0.10,RA,,2.13,0.0,WeatherDisplay:10.37,2013-05-06 02:44:00,
2013-05-05 22:49:00,48.8,47.7,29.87,West,274,6.9,6.9,96,0.06,RA,,2.13,0.0,WeatherDisplay:10.37,2013-05-06 02:49:00,
2013-05-05 22:54:00,48.8,47.7,29.87,West,280,8.1,8.1,96,0.05,,,2.13,0.0,WeatherDisplay:10.37,2013-05-06 02:54:00,
2013-05-05 22:59:00,48.7,47.6,29.87,West,280,4.6,4.6,96,0.05,RA,,2.14,0.0,WeatherDisplay:10.37,2013-05-06 02:59:00,
2013-05-05 23:04:00,48.7,47.6,29.86,West,280,3.5,3.5,96,0.05,RA,,2.14,0.0,WeatherDisplay:10.37,2013-05-06 03:04:00,
2013-05-05 23:09:00,48.6,47.5,29.86,West,281,5.8,5.8,96,0.05,RA,,2.15,0.0,WeatherDisplay:10.37,2013-05-06 03:09:00,
2013-05-05 23:14:00,48.4,47.3,29.86,West,281,4.0,4.0,96,0.06,RA,,2.17,0.0,WeatherDisplay:10.37,2013-05-06 03:14:00,
2013-05-05 23:19:00,48.2,47.1,29.85,NNW,327,5.8,5.8,96,0.06,RA,,2.17,0.0,WeatherDisplay:10.37,2013-05-06 03:19:00,
2013-05-05 23:24:00,48.1,47.0,29.85,NNW,327,3.5,3.5,96,0.05,,,2.17,0.0,WeatherDisplay:10.37,2013-05-06 03:24:00,
2013-05-05 23:29:00,47.9,46.5,29.85,NNW,327,4.6,4.6,95,0.05,CLR,,2.17,0.0,WeatherDisplay:10.37,2013-05-06 03:29:00,
2013-05-05 23:34:00,47.8,46.4,29.85,NNW,327,0.0,0.0,95,0.05,CLR,,2.17,0.0,WeatherDisplay:10.37,2013-05-06 03:34:00,
2013-05-05 23:39:00,47.7,46.6,29.83,North,5,6.9,6.9,96,0.05,CLR,,2.17,0.0,WeatherDisplay:10.37,2013-05-06 03:39:00,
2013-05-05 23:44:00,47.6,46.2,29.83,North,5,4.0,4.0,95,0.04,CLR,,2.17,0.0,WeatherDisplay:10.37,2013-05-06 03:44:00,
2013-05-05 23:49:00,47.6,46.5,29.83,NE,54,3.5,3.5,96,0.04,CLR,,2.17,0.0,WeatherDisplay:10.37,2013-05-06 03:49:00,
2013-05-05 23:54:00,47.5,46.4,29.83,NE,51,6.9,6.9,96,0.04,CLR,,2.17,0.0,WeatherDisplay:10.37,2013-05-06 03:54:00,
2013-05-05 23:59:00,47.4,46.3,29.83,NE,42,10.4,10.4,96,0.04,RA,,2.18,0.0,WeatherDisplay:10.37,2013-05-06 03:59:00,